Weather History for KHSV - December, 2011

Change the Weather History Date:

Thursday, December 22, 2011

  Actual Average Record
Temperature  
Mean Temperature 49 °F 43 °F  
Max Temperature 52 °F 52 °F 71 °F (1970)
Min Temperature 45 °F 33 °F -3 °F (1989)
Degree Days  
Heating Degree Days 16 22  
Month to date heating degree days 373 447  
Since 1 July heating degree days 919 974  
Cooling Degree Days 0 0  
Month to date cooling degree days 0 0  
Year to date cooling degree days 2076 1949  
Moisture  
Dew Point 45 °F    
Average Humidity 87    
Maximum Humidity 93    
Minimum Humidity 80    
Precipitation  
Precipitation 1.14 in 0.18 in 9.07 in (1990)
Month to date precipitation 4.52 4.23  
Year to date precipitation 57.76 52.80  
Snow  
Snow 0.00 in - - ()
Month to date snowfall T  
Since 1 July snowfall T  
Snow Depth 0.00 in    
Sea Level Pressure  
Sea Level Pressure 29.99 in    
Wind  
Wind Speed 7 mph (North)    
Max Wind Speed 21 mph    
Max Gust Speed 26 mph    
Visibility 6 miles    
Events Rain    
T = Trace of Precipitation, MM = Missing Value Source: NWS Daily Summary

Daily Weather History Graph

Daily Weather History Graph

Search for Another Location

Airport or City:

Trip Planner

Search our weather history database for the weather conditions in past years. The results will help you decide how hot, cold, wet, or windy it might be!

Date:

Astronomy

Dec. 22, 2011 Rise Set
Actual Time 6:50 AM CST 4:40 PM CST
Civil Twilight 6:22 AM CST 5:08 PM CST
Nautical Twilight 5:51 AM CST 5:40 PM CST
Astronomical Twilight 5:20 AM CST 6:11 PM CST
Moon 4:34 AM CST (12/22) 2:50 PM CST (12/22)
Length of Visible Light 10h 46m
Length of Day
9h 50m
Waning Crescent, 5% of the Moon is Illuminated
Dec 22
Waning Crescent
Dec 24
New
Jan 1
First Quarter
Jan 9
Full
Jan 16
Last Quarter

Hourly Weather History & Observations

Time (CST) Temp. Windchill Dew Point Humidity Pressure Visibility Wind Dir Wind Speed Gust Speed Precip Events Conditions
12:53 AM 46.9 °F - 42.1 °F 83% 30.02 in 10.0 mi NNW 3.5 mph - N/A   Overcast
1:53 AM 46.9 °F - 42.1 °F 83% 30.02 in 10.0 mi ESE 3.5 mph - N/A   Overcast
2:53 AM 46.0 °F 43.9 °F 42.1 °F 86% 30.01 in 10.0 mi East 4.6 mph - N/A   Overcast
3:53 AM 46.0 °F 43.9 °F 42.1 °F 86% 30.01 in 10.0 mi ENE 4.6 mph - N/A   Overcast
4:53 AM 46.0 °F - 42.1 °F 86% 30.01 in 10.0 mi Calm Calm - N/A   Overcast
5:53 AM 48.0 °F - 43.0 °F 83% 29.98 in 10.0 mi East 8.1 mph - N/A   Overcast
6:53 AM 48.9 °F - 43.0 °F 80% 29.98 in 10.0 mi East 6.9 mph - N/A   Overcast
7:53 AM 50.0 °F - 42.8 °F 76% 30.01 in 10.0 mi NNW 8.1 mph 19.6 mph N/A Rain Light Rain
8:53 AM 51.1 °F - 44.1 °F 77% 30.00 in 10.0 mi North 4.6 mph - 0.00 in   Overcast
9:53 AM 51.1 °F - 44.1 °F 77% 29.98 in 10.0 mi NNE 8.1 mph - 0.00 in Rain Light Rain
10:49 AM 50.0 °F - 46.4 °F 87% 29.96 in 1.8 mi NW 11.5 mph - 0.05 in   Overcast
10:53 AM 50.0 °F - 46.0 °F 86% 29.99 in 1.8 mi WNW 20.7 mph 26.5 mph 0.09 in Rain Heavy Rain
11:03 AM 48.2 °F - 46.4 °F 93% 30.00 in 2.0 mi WNW 12.7 mph 25.3 mph 0.14 in Rain Heavy Rain
11:24 AM 48.2 °F - 46.4 °F 93% 29.97 in 2.0 mi NNW 13.8 mph - 0.29 in Rain Heavy Rain
11:42 AM 48.2 °F - 44.6 °F 87% 29.96 in 1.5 mi North 11.5 mph 21.9 mph 0.41 in Rain Rain
11:43 AM 48.2 °F - 44.6 °F 87% 29.95 in 2.0 mi North 11.5 mph 21.9 mph 0.43 in Rain Rain
11:49 AM 48.0 °F - 46.0 °F 93% 29.97 in 2.0 mi NNW 13.8 mph - 0.45 in Rain Rain
12:20 PM 48.2 °F - 46.4 °F 93% 29.91 in 2.0 mi NNE 8.1 mph - 0.10 in Rain Rain
12:22 PM 48.2 °F - 46.4 °F 93% 29.91 in 2.0 mi NNE 8.1 mph - 0.10 in Rain Heavy Rain
12:30 PM 48.2 °F - 46.4 °F 93% 29.91 in 6.0 mi NE 11.5 mph - 0.11 in Rain Light Rain
12:38 PM 48.2 °F - 46.4 °F 93% 29.89 in 2.5 mi NE 10.4 mph - 0.13 in Rain Rain
12:53 PM 48.9 °F - 46.0 °F 90% 29.92 in 2.5 mi North 8.1 mph - 0.20 in Rain Heavy Rain
1:03 PM 48.2 °F - 46.4 °F 93% 29.92 in 2.5 mi NNW 8.1 mph - N/A Rain Rain
1:12 PM 48.2 °F - 46.4 °F 93% 29.93 in 2.5 mi North 6.9 mph - 0.09 in Rain Heavy Rain
1:39 PM 48.2 °F - 46.4 °F 93% 29.91 in 4.0 mi NNW 10.4 mph - 0.12 in Rain Rain
1:45 PM 48.2 °F - 46.4 °F 93% 29.92 in 2.0 mi NNW 10.4 mph - 0.15 in Rain Heavy Rain
1:53 PM 48.2 °F - 46.4 °F 93% 29.91 in 1.5 mi North 8.1 mph - N/A Rain Heavy Rain
2:04 PM 48.2 °F - 46.4 °F 93% 29.92 in 2.5 mi North 5.8 mph - N/A Rain Rain
2:12 PM 48.2 °F - 46.4 °F 93% 29.93 in 2.5 mi Calm Calm - 0.09 in Rain Rain
2:30 PM 48.2 °F - 46.4 °F 93% 29.93 in 3.0 mi North 4.6 mph - 0.15 in Rain Rain
2:53 PM 48.9 °F - 46.0 °F 90% 29.95 in 6.0 mi NW 8.1 mph - 0.18 in Rain Light Rain
3:07 PM 48.2 °F - 46.4 °F 93% 29.97 in 10.0 mi NW 10.4 mph - 0.00 in Rain Light Rain
3:53 PM 48.9 °F - 46.0 °F 90% 29.93 in 10.0 mi NE 8.1 mph - 0.01 in Rain Light Rain
4:53 PM 48.2 °F - 46.4 °F 93% 29.96 in 10.0 mi NW 4.6 mph - N/A   Mostly Cloudy
5:53 PM 48.9 °F - 45.0 °F 86% 30.04 in 10.0 mi WNW 12.7 mph 21.9 mph N/A   Overcast
6:53 PM 48.9 °F - 45.0 °F 86% 30.07 in 10.0 mi NW 10.4 mph - 0.00 in   Light Drizzle
7:06 PM 48.2 °F - 44.6 °F 87% 30.07 in 10.0 mi NNW 9.2 mph - 0.00 in   Light Drizzle
7:53 PM 48.9 °F - 45.0 °F 86% 30.10 in 10.0 mi NNW 8.1 mph - 0.00 in   Overcast
8:23 PM 48.2 °F - 44.6 °F 87% 30.11 in 10.0 mi NNW 5.8 mph - N/A   Mostly Cloudy
8:53 PM 48.2 °F - 44.6 °F 87% 30.12 in 10.0 mi North 4.6 mph - N/A   Mostly Cloudy
9:53 PM 48.2 °F - 44.6 °F 87% 30.13 in 10.0 mi NNE 3.5 mph - N/A   Mostly Cloudy
10:53 PM 48.9 °F - 43.0 °F 80% 30.14 in 10.0 mi North 8.1 mph - N/A   Overcast
11:53 PM 48.0 °F - 43.0 °F 83% 30.16 in 10.0 mi NNW 4.6 mph - N/A   Overcast